OpenBCM V1.13 (Linux)

Packet Radio Mailbox

DB0FHN

[JN59NK Nuernberg]

 Login: GUEST





  
LU9DCE > KEP      20.04.19 20:34l 252 Lines 12385 Bytes #999 (0) @ WW
BID : 22049_LU9DCE
Read: DF7EAV DK3UZ GUEST
Subj: TLE 20 04
Path: DB0FHN<DB0BLO<DB0ERF<DB0RES<IR2UBX<EA2RCF<LU9DCE
Sent: 190420/1800Z 22049@LU9DCE.TOR.BA.ARG.SOAM LinBPQ6.0.18

            __    _  _  ___  ____   ___  ____    ____  ____  ____
           (  )  / )( \/ _ \(    \ / __)(  __)  (  _ \(  _ \/ ___)
           / (_/\) \/ (\__  )) D (( (__  ) _)    ) _ ( ) _ (\___ \
           \____/\____/(___/(____/ \___)(____)  (____/(____/(____/
               ESTACION DE PACKET RADIO - BUENOS AIRES (GF05OM)
                   BOLETINES INFORMATIVOS PROGRAMADOS (BIP)
                  SOPORTE TECNICO - HELLOCODELINUX@GMAIL.COM

+----------------------------------------------------------------------------+
OSCAR 7
1  7530U 74089B   19109.93319079 -.00000047 +00000-0 -13246-4 0  9997
2  7530 101.7382 078.2216 0012532 101.7814 316.6705 12.53637723032798
OSCAR 11 (UoSAT 2)
1 14781U 84021B   19109.65316750  .00000080  00000-0  15922-4 0  9990
2 14781  97.6167 137.1928 0009287 148.5029 211.6743 14.83077455889862
OSCAR 19 (LUSAT)
1 20442U 90005G   19109.82718329 +.00000001 +00000-0 +16740-4 0  9999
2 20442 098.6440 051.9438 0011219 331.2845 028.7720 14.32922496527748
EYESAT A
1 22825U 93061C   19109.95819406 -.00000016 +00000-0 +11908-4 0  9991
2 22825 098.9005 097.2426 0008600 165.7856 194.3568 14.30056038333144
ITAMSAT
1 22826U 93061D   19109.90382517 -.00000019 +00000-0 +10462-4 0  9992
2 22826 098.8945 097.1858 0009310 155.7160 204.4462 14.30389307333358
RADIO ROSTO
1 23439U 94085A   19109.82740883 -.00000052  00000-0 -28224-3 0  9997
2 23439  64.8164 212.9322 0147465 124.8058 236.6842 11.27567878  1305
JAS 2
1 24278U 96046B   19110.46924097 -.00000011  00000-0  23389-4 0  9993
2 24278  98.5285 271.9379 0350876  33.7653 328.5307 13.53090567119790
TECHSAT 1B
1 25397U 98043D   19109.88065935 -.00000021 +00000-0 +10056-4 0  9994
2 25397 098.6844 050.7651 0001146 155.4949 204.6284 14.23663703079142
ISS (ZARYA)
1 25544U 98067A   19110.55921104  .00001281  00000-0  27960-4 0  9999
2 25544  51.6418 287.6593 0001153 198.9278 267.3393 15.52572557166304
PCSAT
1 26931U 01043C   19110.21325949 -.00000012  00000-0  27077-4 0  9997
2 26931  67.0502 157.1640 0005957 278.3269  81.7157 14.30538838916468
SAUDISAT 1C
1 27607U 02058C   19110.51456155 -.00000014  00000-0  18862-4 0  9996
2 27607  64.5549 230.5200 0082390 267.7981  91.3686 14.75537159878307
CUTE-1
1 27844U 03031E   19110.55516999  .00000039  00000-0  37114-4 0  9995
2 27844  98.6861 119.6480 0009477 195.4854 164.6035 14.22171106819881
CUBESAT XI 4
1 27848U 03031J   19109.82673831 +.00000030 +00000-0 +33418-4 0  9990
2 27848 098.6939 119.4170 0009101 209.4732 150.5933 14.21767006819600
MOZHAYETS 4
1 27939U 03042A   19110.42594584  .00000041  00000-0  15976-4 0  9999
2 27939  98.0293 247.4313 0011527 252.0379 107.9589 14.66770608831850
CUBESAT XI 5
1 28895U 05043F   19109.89598675 +.00000109 +00000-0 +29680-4 0  9990
2 28895 097.9493 254.7088 0017001 175.8467 184.2880 14.63650240718509
CUTE-1.7+APD II
1 32785U 08021C   19110.18475976  .00000199  00000-0  27070-4 0  9994
2 32785  97.5498 112.7079 0014711  99.4280 260.8601 14.88281448594832
DELFI C3
1 32789U 08021G   19109.92082327 +.00000736 +00000-0 +53403-4 0  9998
2 32789 097.4707 161.3745 0011265 337.4453 022.6278 15.06810168597864
SEEDS
1 32791U 08021J   19109.90037282  .00000412  00000-0  47196-4 0  9992
2 32791  97.5296 118.3439 0014990  78.8548 281.4356 14.90778846595208
YUBELEINY
1 32953U 08025A   19110.40831765  .00000020  00000-0  75656-4 0  9998
2 32953  82.5060 181.6294 0017966 257.0657 102.8416 12.43088848494945
PRISM (HITOMI)
1 33493U 09002B   19109.75737790  .00000186  00000-0  21880-4 0  9996
2 33493  98.1223  28.4407 0015857  25.6381 334.5622 14.96584274556185
KKS-1 (KISEKI)
1 33499U 09002H   19110.53808579  .00000068  00000-0  18099-4 0  9991
2 33499  98.3540 307.3454 0010022  41.1883 319.0079 14.75424798550500
SWISSCUBE
1 35932U 09051B   19110.09532939  .00000124  00000-0  39165-4 0  9994
2 35932  98.5814 274.3440 0007361 357.9254   2.1911 14.56265094508105
BEESAT
1 35933U 09051C   19110.10200210  .00000103  00000-0  34166-4 0  9994
2 35933  98.5845 276.0798 0005904  13.9648 346.1712 14.56356761508216
ITUPSAT 1
1 35935U 09051E   19109.71290935 +.00000070 +00000-0 +27360-4 0  9995
2 35935 098.5956 275.9213 0008138 008.4668 351.6665 14.55519179507887
XIWANG-1 (HOPE-1)
1 36122U 09072B   19109.99606523 -.00000009  00000-0  85603-4 0  9998
2 36122 100.0732 115.1830 0007883 117.1402 243.0516 13.16349570449029
TISAT 1
1 36799U 10035E   19109.89042990 +.00000475 +00000-0 +54063-4 0  9992
2 36799 098.1470 260.0902 0010917 283.2617 076.7383 14.91056773475655
JUGNU
1 37839U 11058B   19109.90988906  .00000329  00000-0  33509-4 0  9992
2 37839  19.9620 337.3003 0018822  28.3653  50.6217 14.12647882388795
SRMSAT
1 37841U 11058D   19109.17831304 +.00000306 +00000-0 +23140-4 0  9998
2 37841 019.9730 037.2564 0011750 251.4131 251.1524 14.10629164388049
M-CUBED/EXP-1 PRIME
1 37855U 11061F   19109.58014027 +.00000962 +00000-0 +56403-4 0  9993
2 37855 101.7232 334.3022 0173842 254.9869 103.2045 15.05275795407261
HORYU 2
1 38340U 12025D   19110.31413745  .00000161  00000-0  31631-4 0  9994
2 38340  98.3357 147.1024 0010462 318.2739  41.7670 14.75694203372402
STRAND 1
1 39090U 13009E   19110.10372513  .00000024  00000-0  23485-4 0  9990
2 39090  98.4946 317.0421 0010321 104.1262 256.1071 14.35078733321845
SOMP
1 39134U 13015E   19109.75369035 +.00001123 +00000-0 +60980-4 0  9992
2 39134 064.8636 214.6008 0025221 314.0953 045.8099 15.20001814331108
BEESAT 3
1 39135U 13015F   19110.55854140  .00000861  00000-0  52757-4 0  9990
2 39135  64.8667 229.4750 0012518 318.6065  41.4111 15.17335350331276
BEESAT 2
1 39136U 13015G   19109.58462449 +.00000975 +00000-0 +59297-4 0  9991
2 39136 064.8686 236.2527 0013422 310.9427 049.0536 15.16775486330662
CUBEBUG 1
1 39153U 13018D   19110.49262388  .00000166  00000-0  28619-4 0  9991
2 39153  97.9745 208.9646 0017639  34.8504 325.3860 14.80542422323051
ZACUBE
1 39417U 13066B   19109.91526984 +.00000189 +00000-0 +30231-4 0  9995
2 39417 097.5662 126.7661 0057793 228.9642 130.6568 14.81086017292192
TRITON 1
1 39427U 13066M   19110.55715045  .00000212  00000-0  41861-4 0  9994
2 39427  97.6716  91.6056 0113819 355.6374   4.3829 14.67812651289664
GOMX 1
1 39430U 13066Q   19110.51572010  .00000192  00000-0  43241-4 0  9998
2 39430  97.7401  70.9907 0152960  80.7687 281.0767 14.59223248287974
HUMSAT D
1 39433U 13066T   19110.13306808  .00000382  00000-0  42575-4 0  9999
2 39433  97.5605 160.0517 0032032 137.4793 222.8915 14.92137330294197
CUBEBUG 2
1 39440U 13066AA  19109.95171824 +.00000189 +00000-0 +33474-4 0  9996
2 39440 097.6022 111.9179 0078717 279.2388 079.9926 14.75825635289968
FUNCUBE 1
1 39444U 13066AE  19110.01624292  .00000225  00000-0  34138-4 0  9990
2 39444  97.5647 128.7473 0057027 222.6056 137.0728 14.81898330291094
UWE-3
1 39446U 13066AG  19109.99051010  .00000174  00000-0  29891-4 0  9992
2 39446  97.5830 118.9017 0068527 254.5407 104.8229 14.78359693290442
SPROUT
1 39770U 14029E   19110.36036328  .00000651  00000-0  78337-4 0  9999
2 39770  97.8783 214.0632 0007971 285.7778  74.2542 14.87262574266011
UNISAT 6
1 40012U 14033C   19110.54728804  .00000160  00000-0  31383-4 0  9997
2 40012  97.7663 339.6771 0056986 289.2706  70.2344 14.73952383259978
DUCHIFAT 1
1 40021U 14033M   19110.33698606  .00000470  00000-0  53937-4 0  9993
2 40021  97.9233  34.7401 0011502 243.8352 116.1683 14.90579311262700
QB50P1
1 40025U 14033R   19109.75437795  .00000208  00000-0  28166-4 0  9996
2 40025  97.9066  29.5349 0010983 255.6504 104.3493 14.88906088262400
CHUBUSAT 1
1 40300U 14070C   19110.28511251  .00000640  00000-0  30956-4 0  9993
2 40300  97.3306 185.9624 0018703 265.8996 134.6357 15.22000713246985
NUDT-PHONESAT
1 40900U 15049B   19110.56863356  .00002211  00000-0  98136-4 0  9993
2 40900  97.4394 120.4912 0014346  39.2982  76.8669 15.22540786198663
ZDPS 2A
1 40901U 15049C   19110.54029861  .00001097  00000-0  57767-4 0  9993
2 40901  97.4600 117.2241 0015241  53.3918  64.7313 15.17620840198266
ZDPS 2B
1 40902U 15049D   19110.35861458  .00001090  00000-0  57785-4 0  9992
2 40902  97.4540 114.6257 0015234  51.5554  59.8787 15.17395737198215
XW-2A
1 40903U 15049E   19110.52356789  .00001918  00000-0  47495-4 0  9994
2 40903  97.3451 152.9402 0014005   8.3491  97.6861 15.41620754201134
KAITUO 1A
1 40904U 15049F   19110.44196865  .00000216  00000-0  14923-4 0  9993
2 40904  97.4665 113.4707 0016408  56.4895  75.5071 15.15304189198027
OBJECT G
1 40905U 15049G   19110.40962620  .00000559  00000-0  34089-4 0  9995
2 40905  97.4698 111.0667 0017383  51.6097  54.3117 15.14239246197909
XW-2C
1 40906U 15049H   19110.38382243  .00000692  00000-0  39862-4 0  9992
2 40906  97.4672 113.4508 0016486  48.6707  56.9617 15.15594345198010
XW-2D
1 40907U 15049J   19110.36894118  .00000525  00000-0  30895-4 0  9992
2 40907  97.4652 113.1142 0015828  47.2600  59.9310 15.15773951198022
LILACSAT 2
1 40908U 15049K   19110.44121316  .00000122  00000-0  10386-4 0  9991
2 40908  97.4778 112.1284 0017610  51.4769  86.6632 15.13750929197843
XW-2F
1 40910U 15049M   19110.38574919  .00001153  00000-0  61308-4 0  9993
2 40910  97.4620 114.9997 0016119  40.9808  64.6048 15.17167367198023
XW-2B
1 40911U 15049N   19110.40462510  .00000957  00000-0  53606-4 0  9993
2 40911  97.4671 113.7826 0015754  47.6789  90.6661 15.15709766197925
KAITUO 1B
1 40912U 15049P   19110.57421571  .00001175  00000-0  58523-4 0  9990
2 40912  97.4511 118.6987 0015916  25.7674  89.7527 15.19462207198337
TIANWANG 1C (TW-1C)
1 40926U 15051B   19110.40500000  .00010536  00000-0  16166-3 0  9992
2 40926  97.1431 156.6865 0007272 219.0189 331.7151 15.54448949200942
